Weather in Chaplinka

Ukraine / Kherson District     46°21′53″N   33°32′11″E
temp.,
°C
wind,
m/s
gust,
m/s
humid.,
%
clouds,
%
prec.,
mm/h
press.,
hPa
HPBL,
m
20 april, tue
tue2000:00+10e3576100 0.0 1011159
03:00+9se2383100 0.0 100993
06:00+9ene4793100 2.0 1006305
09:00+9nne4693100 6.1 1006346
12:00+9n6993100 6.9 1005590
15:00+11nw3678100 7.6 1007746
18:00+12w6977100 1.2 1008485
21:00+8wsw51187100 1.3 1010282
21 april, wed
wed2100:00+9wsw598899 0.0 1012252
03:00+9wsw378994 0.0 1012182
06:00+7wsw3390100 0.1 101342
09:00+12sw356783 0.1 1015448
12:00+15sw67535 0.0 10161532
15:00+15sw785729 0.0 10161331
18:00+13sw69705 0.0 1017612
21:00+8sw38932 0.0 1018172
22 april, thu
thu2200:00+8sw35950 0.0 1019100
03:00+8sw33925 0.0 101942
06:00+8ssw46935 0.0 102098
09:00+13sw56685 0.0 1021452
12:00+16sw55545 0.0 10221000
15:00+17sw55481 0.0 10211465
18:00+14wsw67632 0.0 1022532
21:00+10ssw36830 0.0 1022108
23 april, fri
fri2300:00+9s36870 0.0 1023107
03:00+8ssw34890 0.0 102260
06:00+8s34895 0.0 102261
09:00+13s56660 0.0 1022426
12:00+17s56502 0.0 10221182
15:00+18s454519 0.0 10211311
18:00+15s2355100 0.0 1020452
21:00+11wsw227084 0.0 102011
24 april, sat
sat2400:00+10nw2274100 0.0 101825
03:00+9nw2285100 0.0 101814
06:00+9nw2290100 0.0 101738
09:00+13wsw3473100 0.0 1018526
12:00+15w446599 0.0 10181115
15:00+14nnw4362100 0.1 10171192
18:00+11n6671100 0.0 1018539
21:00+8nne3582100 0.0 1019112